Regional Weather Roundup
Issued by NWS Cleveland, OH

Home | Current Version | Previous Version | Text Only | Print | Product List | Glossary Off
Versions: 1 2 3 4 5 6 7 8 9 10 11 12 13 14 15 16 17 18 19 20 21 22 23 24 25 26 27 28 29 30 31 32 33 34 35 36 37 38 39 40 41 42 43 44 45 46 47 48 49 50

000
ASUS41 KCLE 241810
RWRCLE
OHIO REGIONAL WEATHER ROUNDUP
NATIONAL WEATHER SERVICE CLEVELAND, OH
200 PM EDT WED MAY 24 2017

NOTE: "FAIR" INDICATES FEW OR NO CLOUDS BELOW 12,000 FEET WITH NO
SIGNIFICANT WEATHER AND/OR OBSTRUCTIONS TO VISIBILITY.

OHZ001>008-015>018-024>027-034-035-043-044-241900-
   NORTHWEST OHIO

CITY           SKY/WX    TMP DP  RH WIND       PRES   REMARKS
DEFIANCE       CLOUDY    69  56  62 VRB7      29.48F
FINDLAY        PTSUNNY   72  54  53 E16       29.48F
TOLEDO EXPRESS LGT RAIN  61  61 100 NE16      29.53F
TOLEDO EXEC    CLOUDY    65  59  81 NE14      29.54F
LIMA           CLOUDY    70  58  65 E10       29.47F
$$

OHZ009>014-019>023-028>033-038-089-241900-
   NORTHEAST OHIO

CITY           SKY/WX    TMP DP  RH WIND       PRES   REMARKS
CLE-HOPKINS    RAIN      65  59  81 E9        29.58F
CLE-LAKEFRONT  LGT RAIN  60  57  89 NE10      29.56S FOG
CUY CO. ARPT   CLOUDY    66  57  72 SE9       29.58F
LORAIN-ELYRIA    N/A    N/A N/A N/A MISG      29.56S
ASHTABULA      CLOUDY    67  56  67 SE7       29.60F
AKRON-CANTON   RAIN      62  58  86 SE14      29.57F FOG
WOOSTER        LGT RAIN  61  58  90 SE10      29.56F
MANSFIELD      CLOUDY    61  59  93 E9        29.54F FOG
YOUNGSTOWN     CLOUDY    65  56  72 E12       29.59F
$$

OHZ042-051>053-060>062-070>072-077>081-241900-
  SOUTHWEST OHIO

CITY           SKY/WX    TMP DP  RH WIND       PRES   REMARKS
CINC-COVINGTON TSTM      64  61  90 SE5       29.43F FOG
CINC-LUNKEN    CLOUDY    69  60  73 SE7       29.43F
HAMILTON       PTSUNNY   71  59  65 E7        29.44F
DAYTON         PTSUNNY   69  58  67 SE15G23   29.46F
WRIGHT-PAT AFB CLOUDY    69  59  72 E10G21    29.46F
DAYTON GENERAL CLOUDY    70  58  65 E9G17     29.45F
WILMINGTON     CLOUDY    67  59  75 SE10      29.47F
$$

OHZ036-037-039>041-045>050-054>059-063>069-073>076-082>088-241900-
  CENTRAL AND SOUTHEAST OHIO

CITY           SKY/WX    TMP DP  RH WIND       PRES   REMARKS
COLUMBUS       CLOUDY    66  60  81 E8        29.49F
OSU AIRPORT    CLOUDY    65  59  81 E12       29.50F
BOLTON FIELD   CLOUDY    64  59  82 SE8       29.50F
RICKENBACK AFB CLOUDY    66  59  78 SE7       29.49S
NEWARK         CLOUDY    65  58  78 E9        29.51F
MARION         CLOUDY    63  58  83 E9        29.52F
LANCASTER      CLOUDY    68  59  73 SE10      29.51F
ZANESVILLE     LGT RAIN  64  59  83 S6        29.54S
NEW PHILLY     NOT AVBL
$$




USA.gov is the U.S. government's official web portal to all federal, state and local government web resources and services.